TIMESTAMP,CO2_1_1_1,H2O_1_1_1,TAU_1_1_1,TAU_SSITC_TEST_1_1_1,H_1_1_1,H_SSITC_TEST_1_1_1,LE_1_1_1,LE_SSITC_TEST_1_1_1,FC_1_1_1,FC_SSITC_TEST_1_1_1,WD_0_0_1,WS_0_0_1,WS_MAX_0_0_1,U_SIGMA_0_0_1,V_SIGMA_0_0_1,W_SIGMA_0_0_1,USTAR_0_0_1,MO_LENGTH_0_0_1,ZL_0_0_1,FETCH_MAX_0_0_1,FETCH_70_0_0_1,FETCH_80_0_0_1,FETCH_90_0_0_1,PA_0_0_1,RH_0_0_1,TA_0_0_1,VPD_0_0_1,T_SONIC_0_0_1,T_SONIC_SIGMA_0_0_1
[yyyymmddHHMMSS],[mmolCO2 mol-1],[mmolH2O mol-1],[kg m-1 s-2],[#],[W m-2],[#],[W m-2],[#],[umolCO2 m-2 s-1],[#],[Decimal degrees],[m s-1],[m s-1],[m s-1],[m s-1],[m s-1],[m s-1],[m],[#],[m],[m],[m],[m],[kPa],[%],[deg C],[hPa],[deg C],[deg C]
20191026003000,413.03199805136512,5.1548530916664390,0.24916563044722931,0,-68.201457314663429,0,14.501619453718154,0,3.2913740130270877,0,165.15705602812830,2.6868346454128886,6.9234041437929195,0.99161701640208899,0.91571370023461551,0.70887808542636976,0.45905654020741210,118.39163600036881,0.16048430988774251,88.448526597231222,161.71211583045366,193.52810079837082,242.27421731969616,94.148485957031255,61.065517241379311,3.7148275862069227,3.0951698187283347,3.3908132137722760,0.22026998337102738
20191026010000,413.18683614182982,5.1466874889287455,0.67889492349623315,0,-85.962776829488504,0,21.921692323102391,0,4.9283892486780854,0,169.44630762892180,3.3808564622217538,9.2728462775682789,1.5117608134996425,1.1645948196760076,0.89985963966559224,0.75766781344776302,422.31427654942070,4.49901910852794767E-002,109.11844082455316,199.50331136902201,238.75450985201877,298.89231469393144,94.146824880498869,61.229666666666667,3.6539999999999964,3.0689343297375826,3.3220916146105992,0.19851865065340102
20191026013000,413.46773132575430,5.1355770383181207,0.50505084257796418,0,-79.289533910179699,0,21.882924553662161,0,4.1487721807231832,0,174.00979897653679,3.5011811187586490,9.3736005451244733,1.3178306760598830,1.1729691930810076,0.88638862041841660,0.65325064341757699,293.45646207227907,6.47455498707684013E-002,98.088804005943970,179.33761754236417,214.62132473157786,268.68043067106413,94.150598328559042,61.960999999999999,3.4556666666666729,2.9692002266365454,3.1217553965250318,0.21207990690546075
20191026020000,413.83390119445818,5.1754119501352154,0.65377490076062372,0,-60.286678334496706,0,17.603322301969541,0,3.5436819776548751,0,174.74965323171506,3.6623436099717841,8.9810635096475089,1.4789549154556141,1.2898690787092750,1.0229970138764481,0.74294130389039192,567.71511684775442,3.34674900071320058E-002,96.943570249446978,177.24376498191481,212.11551799412587,265.54345798561877,94.140630265993096,63.558666666666667,3.2033333333333189,2.7942032012852933,2.8803826712015166,0.16296035363481784
20191026023000,414.12495036500388,5.2170590059189133,0.74733773050869634,0,-59.398562444954685,0,15.075083654873415,0,2.8806575424073246,0,176.32946722192898,3.8535364079376722,10.416668651020224,1.7678424648317550,1.3543427614375916,0.98351190768604724,0.79431254505055049,704.17864814212044,2.69817894225121910E-002,105.54176171845492,192.96400123978094,230.92862579042861,289.09523650200612,94.138630494574656,64.158000000000001,3.1836666666666815,2.7444259823450587,2.8625498402913649,0.16124604930355002
20191026030000,414.45597963929509,5.2434631372886482,0.50331144697661867,0,-53.151617768939865,0,11.756542632623331,0,2.3470800306520330,0,174.18801837023165,3.6126809913479261,10.639088463296408,1.5502562574215242,1.3261551709921731,0.94894641292279680,0.65194601131122221,435.08464704502740,4.36696632001213059E-002,92.732262328232153,169.54415097416131,202.90104653570188,254.00803314863228,94.129117450520837,64.266666666666666,3.2296666666666738,2.7450258654535098,2.9118186501397076,0.16373740393604508
20191026033000,414.73928926812385,5.2689062672872247,0.51578037413156974,0,-78.019881794759470,0,15.236837188351748,0,2.9482920282460530,0,170.62667678060851,3.4117196473319527,9.2921019532375837,1.4451809216206177,1.2472380721684062,0.94403607240497012,0.66005656020819414,307.60667416009534,6.17671903637284567E-002,94.043535934322236,171.94157733536082,205.77015357882124,257.59981470599058,94.129115971788195,64.268666666666661,3.2976666666666574,2.7581054363004580,2.9878526984321070,0.18420936805500929
20191026040000,414.75508932548729,5.2632888360501147,0.57448201667627952,0,-65.096099648023923,0,15.222411748795363,0,2.8714737184446784,0,174.26919269240901,3.5559656054140101,9.4954730062085790,1.4259498834335675,1.2935076047523573,0.94220242372737206,0.69684479336646687,433.82607407326111,4.37963532749565190E-002,98.366761553170349,179.84581258870685,215.22950440722414,269.44179945574757,94.130318785373262,63.326999999999998,3.4916666666666742,2.8698601662134009,3.1788454420301946,0.17975669929456881
20191026043000,414.77396878933962,5.2555348297803341,0.89406243046112999,0,-81.099758445038091,0,22.193855207580178,0,3.7602551070173380,0,181.74487889970092,4.1547298215164874,11.444792089161027,1.7966544804148250,1.4961448088842939,1.1675721323381154,0.86958209266121789,676.53857345682889,2.80841340692784963E-002,98.918242929328358,180.85409643028746,216.43616264630973,270.95239238380714,94.105387296006938,62.809333333333335,3.5833333333333144,2.9292582649223018,3.2587700525919558,0.17184310865314140
20191026050000,415.08778265640905,5.2807755584596530,0.76735472659290682,0,-68.686536283045740,0,15.359758358075604,0,2.4076592092324307,0,180.92331976488478,4.0243951673493799,11.591817790374989,1.7950978486444926,1.4456507734572059,1.1233450792573190,0.80562316339675033,635.17227868195755,2.99131442565893982E-002,95.973184562213390,175.46959045701047,209.99228421831171,262.88542125038487,94.100902833116322,63.137666666666668,3.5766666666666538,2.9020325090718204,3.2504029625786757,0.15899782969685641
20191026053000,415.50095572791662,5.3129219821482208,0.83818398258106108,0,-85.420476943222837,0,19.508302536062789,0,3.5569714621103397,0,183.20281332283184,3.5634867411276159,10.553314544707856,1.6640140394550582,1.2826016921072549,1.0305857515344381,0.84198868306497410,583.02448749253142,3.25886826498747867E-002,106.52035281384970,194.75317786778464,233.06981325206209,291.77574912142398,94.088969693950730,63.670999999999999,3.5416666666666856,2.8529910116338222,3.2235330824045150,0.17201908577360916
20191026060000,415.84449041443463,5.3297240544318596,0.56927263903727310,0,-52.971911577499199,0,11.225615747880230,0,2.1673404674662189,0,188.26065464245903,3.4820295887376296,10.808830549093498,1.6019533164232769,1.2331822280406712,0.92785282923853252,0.69382766473093582,526.03555588177562,3.61192314617420560E-002,99.236836801956798,181.43658763975637,217.13325585371325,271.82507035938715,94.081457273220494,64.234999999999999,3.4603333333333239,2.7926193316930004,3.1387462209065689,0.16055480090655055
20191026063000,416.28441537510236,5.3347964228075728,0.35067756990365823,0,-64.806201490418715,0,11.292699467982047,0,2.8384512778327742,0,187.60637974063039,3.3819351233231778,7.8075236936504249,1.1999630671088171,1.0659586474658593,0.77985662836005221,0.54434766784624955,207.59294505356868,9.15252683326839983E-002,93.916992964009452,171.71021642681865,205.49327366169680,257.25319390551704,94.049857961952725,65.692666666666668,3.1516666666666424,2.6209729885862778,2.8317951983203216,0.19145917722400169
20191026070000,416.64212621476867,5.3414654380581315,0.31623974758997031,0,-54.099148274863445,0,10.739073321066835,0,2.6640199150595882,0,179.12680328674656,3.1666754463660873,7.9654453083666050,1.1512616402766238,1.0094690221983282,0.79954288448439703,0.51664462929321364,212.62884409466173,8.93575849546605072E-002,88.294779226904140,161.43101660228700,193.19169681599996,241.85307945291660,94.061409295477276,67.055333333333337,2.8813333333333162,2.4691085041031280,2.5688457358028245,0.16605426024042488
20191026073000,416.88086564607221,5.3431996535400854,0.41734557658178445,0,-74.595055516860427,0,9.5827184685048188,0,2.9561907500237807,0,182.94021085403492,2.6208271038823638,7.1910498736482822,1.0944978985390967,0.86292891191455123,0.71517895746031390,0.59329941458988344,233.53144804187062,8.13594920911612229E-002,107.83065751469343,197.14883276117732,235.93680030065588,295.36487669720395,94.060799770762117,68.047333333333327,2.6789999999999736,2.3606007835147351,2.3607852566216820,0.20374139439891228
20191026080000,417.08936035464308,5.3450938292885377,0.16743144301618165,0,-44.573158043689475,0,4.2460157664815341,0,1.3358391770307072,0,177.49555534599409,2.8258460360742412,6.1858972612060841,0.86917977516899880,0.80285980576101468,0.57566747738253010,0.37562006116661179,99.169049217761511,0.19159203551784215,88.984951381527850,162.69287142005800,194.70181475065448,243.74356790999104,94.052059782769092,69.406666666666666,2.4046666666666852,2.2164897897776301,2.1019574203492084,0.20644612281440997
20191026083000,417.18723618571835,5.3261885639941839,0.19328904347372211,0,-43.251151654464017,0,3.0693937435214012,0,1.0607466891382278,0,174.94464321180649,3.0303577169905194,6.5036248887158550,0.91760676330952118,0.76343916055338912,0.57304396785703937,0.40349050216293408,126.65538566555082,0.15001336027014156,94.573877767074862,172.91121134948480,206.93055784574494,259.05250314959949,94.028026766243940,70.116333333333330,2.2086666666666588,2.1350351324042323,1.9081368773213399,0.19221560786013978
20191026090000,417.30644227846051,5.3399262951683193,0.19240412390452846,0,-74.238510357249012,0,5.8892960329911865,0,2.4245351327211107,0,167.92893054629261,2.8548714631187617,5.8901184204176191,0.88940048316610110,0.77758708887248895,0.58555346296501587,0.40262782103030637,73.300661717989769,0.25920639124785605,92.795022501640361,169.65889658748219,203.03836772840839,254.17994298677533,93.998757514973960,70.287000000000006,2.2063333333333617,2.1224885247563061,1.9190682915581760,0.23952249401796508
20191026113000,420.26696847590813,5.4012936673180887,0.54257767459285811,0,-78.745986980927938,0,12.205806778835926,0,6.1375995581364409,0,163.33064775812403,3.0319909229656257,7.6953334966407718,1.2120996864385707,1.0265127490780597,0.85110764546184936,0.67485725773710858,325.23360615182929,5.84195471827416296E-002,104.00083943062072,190.14670384566276,227.55704035746368,284.87441162681603,93.927726088758675,77.680666666666667,0.96033333333332394,1.4580632118457113,0.68731301710340631,0.20510754674066886
20191026120000,420.56135901534736,5.3841465200420346,0.30975693397459653,0,-49.927139333199605,0,8.2861311102364912,0,3.4499405640457104,0,158.19002400545207,2.9878142229303259,6.9014858215454895,1.1524405692959367,0.93828423074966305,0.71078507107183253,0.50984229416634019,221.14341944756595,8.59170941982516506E-002,95.987117400007492,175.49506412814875,210.02276969659786,262.92358545166064,93.902621911069716,78.208333333333329,0.81866666666667243,1.4091216388172865,0.51564496842161134,0.21701382716608575
20191026123000,421.13811762585397,5.2957642900341835,0.37679241498495492,0,-43.702542891783878,0,8.3822042287224328,0,3.1650945393464465,0,155.27564137014477,3.0727465724380325,7.4648988986094551,1.1128983650771247,0.93257381851996657,0.72389139205971076,0.56198396209675039,338.25552309557582,5.61705536279786116E-002,102.25753214795978,186.95938213361782,223.74263032146993,280.09922289611274,93.867925194661453,79.210999999999999,0.40833333333335986,1.3049998080298661,0.10591129981150971,0.15147834656545067
20191026130000,420.97121441285213,5.2700115611928560,0.21608830576239788,0,-31.325146864907808,0,4.5776558323988388,1,2.1528507170746005,0,154.26502766682464,2.9891649579000572,6.4446256500813712,0.97269896748733842,0.93155283419545587,0.67612897197373434,0.42559527842990369,204.89708952029795,9.27294772438325976E-002,86.462682265790320,158.08135904001469,189.18301222843868,236.83468203710777,93.825897069227452,79.417000000000002,0.29899999999997817,1.2818758604588822,-1.18158688015341795E-002,0.15091410264898286
20191026133000,420.15648471297646,5.2412440866353647,0.36278964902149274,0,-24.439759942300014,0,11.715105121317819,0,2.2899985856854803,0,153.32249572995210,3.1143026564015703,7.7185016615615858,1.1985456201964282,1.0186265110342787,0.76013467700597781,0.55203590910612554,572.97567840696922,3.31602207842839891E-002,96.942971286358883,177.24266988636029,212.11420744443839,265.54181733292552,93.793170400009728,76.230666666666664,0.78466666666668061,1.5332372577061830,0.43940330528255345,0.22447189474403798
20191026140000,418.65126546116517,5.2284564006070422,0.34595917907899626,0,7.6972723296771575,2,16.548406970023720,0,1.3987807716632104,1,152.16827091192948,2.9051461832507028,7.6836750445322179,1.1800997920550194,1.0410864778243194,0.73772215330806079,0.54025481911558693,-1704.9154108073183,-1.11442479078789278E-002,97.593200190089206,178.43149570225171,213.53692831571038,267.32289503755783,93.764958993923614,70.168999999999997,1.8996666666666897,2.0847455858098738,1.5304453413220358,0.43100723491855247
20191026143000,416.26486037882194,5.1786641312252515,0.47458226605626563,0,-53.836767066998362,1,54.277435245746418,0,5.6071621988181111,1,157.72642326844289,2.9053727068338486,7.7019901884653121,1.3447425949009704,1.0877137887395643,0.80218957134790525,0.63491391404868025,395.57254733025883,4.80316445825982111E-002,103.84968083789791,189.87033772860497,227.22630070023672,284.46036482296330,93.737359729166670,61.163666666666664,3.6953333333333376,3.0831286603276200,3.3258314539590970,0.62435532314281428
20191026150000,413.95413120923411,4.9164269142385750,0.82169299704220367,0,44.225915134114246,0,62.334678956910494,0,2.1792743961397956,0,164.24441528261102,4.0513352063957813,11.296217639856451,1.9884025612003928,1.5327295478675009,1.1044335422899763,0.83826913695300365,-1107.9413502367483,-1.71489221843196121E-002,100.42688933437752,183.61238321680975,219.73712745350184,275.08480861567801,93.703622795572912,51.150999999999996,5.5026666666666415,4.4007226424147863,5.0183724153307594,0.28640722037675370
20191026153000,413.78826996004528,4.9298422668863511,0.91380414889848438,0,94.589755116807694,0,55.365094206247960,0,0.67126215319071514,0,160.21880390226514,4.0690198290146222,11.694218013810127,1.9897995809795133,1.6029859916090503,1.1534794929181431,0.88508605191107215,-609.64141312423328,-3.11658617524530994E-002,101.30605296741047,185.21977473285335,221.66076456468451,277.49297401179513,93.677507098307288,49.181666666666665,6.1046666666666738,4.7731161623046754,5.5519654430813148,0.24339840632213625
20191026160000,412.90038422934691,4.8776348026086973,0.80383665126357295,0,97.654225889484593,0,58.054247761337948,0,0.82604296552863343,0,164.19549050192575,3.9908694143736159,12.023192659123744,1.9849017255883845,1.6482181883398415,1.1700616480909407,0.83157609988737302,-489.59478388497422,-3.88076029920773752E-002,95.281701369359610,174.20533864322070,208.47929769162403,260.99134165648439,93.634314112847221,45.859000000000002,6.9590000000000032,5.3933982063119785,6.3711821967230549,0.31934237255663128
20191026163000,412.43463681673359,4.8487983152642338,1.0436963470690601,0,137.45693895901326,0,62.351257030715033,0,-0.63256856044259935,0,155.01525340168570,3.5134291187973163,10.703862041343795,2.0512251180144836,1.5628488767990754,1.0774121912584531,0.94906900340581224,-517.01414187260639,-3.67494783240990136E-002,113.13256222485695,206.84240552713487,247.53753112847730,309.88761510083827,93.619009979551620,43.000000000000000,7.8109999999999786,6.0189542688132978,7.1496140505744847,0.30678354837453747
20191026170000,412.05161113006938,4.6485454281789487,1.3653953558122118,0,173.83315943260689,0,47.912416741206883,0,-0.63439735158389576,1,155.80978269434820,4.8940681985973837,14.933873025824443,2.5342796761922335,1.9293769160975585,1.3969059033403710,1.0863968211933199,-613.09952603832664,-3.09900745198296787E-002,102.40283180658757,187.22503625053872,224.06055045041606,280.49722117177845,93.598813891927108,40.075666666666663,8.2230000000000132,6.5076825496897683,7.5029890340169914,0.31372197968283100
20191026173000,411.61281215421150,4.6702960362359676,0.92152238989042468,0,151.59947502867163,0,49.749246662109002,0,0.11406241396460574,2,145.46058657937220,3.4300154359964417,10.634727549009106,1.9229913354187746,1.5678525384134603,1.1141692723481813,0.89392714063065681,-391.49197554097071,-4.85322846624006918E-002,104.98703163574382,191.94977772649946,229.71485928133038,287.57574486338871,93.541099133029505,38.325333333333333,8.9420000000000073,7.0320868872260718,8.2061093817817437,0.38293317922694814
20191026180000,411.17033156500446,4.4823706183207097,1.7401387779784059,0,219.50835064807143,0,83.955116998987080,0,0.15167407480306380,2,143.76020961239092,4.6215784205463963,13.950067487463848,2.5056683985315762,1.8396282136095801,1.3333995139611237,1.2295551067738748,-703.45294087382513,-2.70096248036127487E-002,117.35053237279358,214.55420021014405,256.76657974419442,321.44128880896739,93.522064265996661,35.576666666666668,9.4336666666666815,7.5930500650284998,8.6595795980251751,0.31623372815024919
20191026183000,410.53375152268194,4.2122196860608163,1.4896821846181929,0,182.37906695564325,0,55.252897745664832,0,-7.46572817918542964E-002,1,150.94010049954343,4.7699992835258840,14.495692614236663,2.3248477032117698,2.0105014576351703,1.3688323367637145,1.1382526257272800,-671.52863450969289,-2.82936557334931525E-002,108.03528537408583,197.52295775085506,236.38453236044450,295.92538410624030,93.491334554750878,32.880000000000003,9.6766666666666765,8.0411653198200543,8.8951398421982049,0.29474649451739360
20191026190000,410.49668560256168,4.4457124013260056,1.4586568266443507,0,198.98489616797997,0,44.317716131297296,0,-1.1786018290804769,1,138.80411617487576,3.8616921270041944,14.809677834615186,2.1283752702382381,1.9363486911431114,1.2672989312723824,1.1269810052893863,-597.34731644851809,-3.18072911299962305E-002,113.99476875923673,208.41879405865126,249.42406558545363,312.24933237665016,93.477885519314242,34.103000000000002,9.9343333333333135,8.0322974360698343,9.1632561704847717,0.32377878625899353
20191026193000,410.63632069409567,4.4754640368552829,0.99148918985032886,0,134.72186843525549,0,58.811706786887655,0,-0.73450086999298281,1,150.90593335583270,4.0315264386182204,13.470392467216900,2.0212817489424224,1.8694399513911255,1.2033608078568521,0.92826875375739137,-493.10239737359473,-3.85315506499247784E-002,101.73659426814382,186.00694154469900,222.60280219325475,278.67229333651346,93.495604096788199,35.472000000000001,9.4503333333333330,7.6139193428300862,8.8252164103190580,0.27237111791344265
20191026200000,410.83243976123663,4.6959151350047446,0.99757271314939944,0,81.599127327639962,0,34.026908391932174,0,-1.7352666586563836,0,136.94091576420550,4.1563356024668359,10.741503517696371,1.9771117313415754,1.5672717422585558,1.0973531469444648,0.93067176053577627,-820.30000325938636,-2.31622576185605902E-002,109.75264568140088,200.66284011660437,240.14216961510050,300.62950005161201,93.466196563359532,38.171666666666667,9.0706666666666820,7.1111150673100312,8.4687537129127008,0.20353320940049913
20191026203000,410.78278032477334,4.7989971452495057,0.74408404310831611,0,67.224754478941179,0,39.811725410240385,0,-4.65106050936194490E-002,1,136.30604183267309,3.0557031495185694,9.4913999684058368,1.6628603860010764,1.2881795561170106,0.91933395858509903,0.80367825797679848,-640.92873324221603,-2.96444815383547985E-002,112.44548795057470,205.58621462264631,246.03419145143823,308.00561221796102,93.411513974802020,39.637333333333331,8.8256666666666774,6.8285952318773910,8.2930531977945066,0.14976345670006005
20191026210000,410.79434075867329,4.7913077401236492,0.69035199082691778,0,52.338737644281281,0,24.098359147610104,0,-0.12400528873639521,0,129.39188588767092,3.1578763307242181,10.313594427004995,1.6513426655105801,1.2421758077717264,0.90967796347062857,0.77398470183468482,-735.00425886625442,-2.58501903503355751E-002,110.03495287624641,201.17898770604381,240.75986645372575,301.40278319499748,93.359188146267357,40.235666666666667,8.5723333333333471,6.6459717279829809,8.0022505594889708,0.20190589737147840
20191026213000,411.03639203811559,4.7428183599541729,0.66673169100567953,0,14.601003391631926,1,26.754575395829587,0,-2.30334754401388120E-002,2,139.29609463313221,3.3262474570590475,9.2393302028872935,1.5768795754970921,1.2888080232467620,0.90567910938805840,0.75980145204957350,-2492.3836213190807,-7.62322454596469842E-003,108.80165835063887,198.92413197411855,238.06138004080086,298.02459842006209,93.356045015625000,41.530666666666669,7.9556666666666729,6.2352612674955994,7.4683801472981486,9.62308913900446206E-002
20191026220000,411.05754716881182,4.7988154354692227,0.46752348441112096,0,-3.1846032384779708,2,17.684821074161825,0,0.92737743931613070,0,133.67700517388715,3.4032282138642733,8.6107640039538147,1.4335670451450944,1.1863314972223007,0.80668896459323047,0.63591714898358531,6698.9987701185219,2.83624473626584075E-003,103.51670426932264,189.26155036381968,226.49773771105123,283.54829041493247,93.345532304253481,42.971333333333334,7.6259999999999764,5.9464593103385868,7.1700984132555732,0.11898369663270233
20191026223000,411.42206171787586,4.8777133269627244,0.45831604875977205,0,-18.226354203722455,0,15.798783204657388,0,1.0694403107778558,0,128.49203801580373,3.0049393569740528,7.7816983173870753,1.2088702525826391,1.0242821486415077,0.75872359829957647,0.62916013694265227,1133.3603037086953,1.67643069356022932E-002,107.79459492834309,197.08289885175691,235.85789425083507,295.26609568616078,93.321129674696181,45.171333333333337,7.1306666666666843,5.5265933977859438,6.7066681170992979,0.18440594630117926
20191026230000,412.20558501657734,4.8935090196249513,0.32140811879844200,0,-19.712440733279848,0,9.7937455031364884,0,0.92394883286210006,0,131.68549679911246,2.6865060720162850,6.7162099193866425,1.0343281880940680,0.87777216919806456,0.68422323566279031,0.52640216820108676,613.69875859828107,3.09598149479672381E-002,101.51980634454155,185.61058407939203,222.12846353839146,278.07847762769705,93.309520000026041,47.020000000000003,6.5919999999999845,5.1462651312476124,6.1897712506176958,0.15743741527410066
20191026233000,413.14807550064262,4.9703579226262828,0.31760331179929635,0,-34.913690625387780,0,6.6158968082191061,0,0.85214281488224108,0,134.34448061370819,2.5692218816027954,6.4715937703442226,1.0144125732831990,0.82406981714052563,0.61149327439610068,0.52280392371944517,339.41602967940582,5.59784993594627245E-002,110.46192891217146,201.95963607673698,241.69410317306955,302.57233670705392,93.299780834783249,49.576333333333331,6.0489999999999782,4.7178571490661705,5.6718994284760811,0.18210563633127669
20191027000000,414.20606760487317,5.0284402566813915,0.31917136011262659,0,-29.126026602839758,0,5.4092400149492237,0,1.0823411262996021,0,130.43569721406749,3.0905477370230869,7.3858115218223084,1.0908308675964644,0.81344666821930656,0.61956054368703939,0.52384590604567693,409.14017164147145,4.64388522979103935E-002,109.48402152768773,200.17170949033707,239.55441169197073,299.89369687774598,93.248686269965290,51.615000000000002,5.6270000000000095,4.3967048205204664,5.2623614510429775,0.16265833760534837
